Вернуться в каталог

STARLINK-30824

АктивенСвязьVLEO
NORAD 58176·PAYLOAD·🇺🇸 United States

Запущен Oct 30, 2023 с Cape Canaveral Space Force Station

Loading…

Ближайшие Пролёты (ближайшие 24 часа)

TLE

СвежийSource: CelesTrak SupGP

Эпоха: Sep 15, 2026, 01:42 UTC

1 58176C 23167B   26258.07131944 -.00001506  00000+0 -54572-4 0  2586
2 58176  43.0010 154.0381 0001318 277.0601 195.5982 15.27570911    13

Отслеживайте STARLINK-30824 в реальном времени с AllMySat

Download on the App Store